Regional Weather Roundup
Issued by NWS

Home | Current Version | Previous Version | Graphics & Text | Print | Product List | Glossary On
Versions: 1 2 3 4 5 6 7 8 9 10 11 12 13 14 15 16 17 18 19 20 21 22 23 24 25 26 27 28 29 30 31 32 33 34 35 36 37 38 39 40 41 42 43 44 45 46 47 48 49 50
000
ASUS45 KBOI 161810
RWRID
WEATHER ROUNDUP FOR IDAHO
NATIONAL WEATHER SERVICE BOISE ID
1200 PM MDT TUE SEP 16 2014

NOTE: "FAIR" INDICATES FEW OR NO CLOUDS BELOW 12000 FEET
WITH NO SIGNIFICANT WEATHER AND/OR OBSTRUCTIONS TO VISIBILITY

IDZ012-014-161900-
SOUTHWEST IDAHO


CITY           SKY/WX    TMP DP  RH WIND       PRES   REMARKS
BOISE          MOSUNNY   81  51  35 NW7       29.97S
CALDWELL       MOSUNNY   75  54  46 N7        29.98F
MOUNTAIN HOME  MOSUNNY   82  40  22 E7        29.97F
$$

IDZ016-017-161900-
SOUTHCENTRAL IDAHO


CITY           SKY/WX    TMP DP  RH WIND       PRES   REMARKS
BURLEY         MOSUNNY   78  48  34 N8        30.04F
JEROME         PTSUNNY   75  41  29 NE6       30.05F
TWIN FALLS     MOSUNNY   76  46  34 NE6       30.05F
$$

IDZ019>023-161900-
SOUTHEAST IDAHO


CITY           SKY/WX    TMP DP  RH WIND       PRES   REMARKS
IDAHO FALLS    PTSUNNY   72  39  30 CALM      30.13F
POCATELLO      MOSUNNY   82  38  20 E13       30.08F
REXBURG        CLOUDY    68  45  43 VRB3      30.15S
$$

IDZ006-010-011-018-031-032-161900-
CENTRAL IDAHO MOUNTAINS


CITY           SKY/WX    TMP DP  RH WIND       PRES   REMARKS
MCCALL         MOSUNNY   69  46  43 S9        30.10F
HAILEY         MOSUNNY   79  48  34 SE10      30.14S
STANLEY          N/A     67  45  45 NW9       30.23F
SALMON         CLOUDY    59  37  44 CALM      30.13F
CHALLIS        CLOUDY    66  40  38 N5        30.15F
$$

IDZ002-004-006-007-026-161900-
NORTHERN IDAHO


CITY           SKY/WX    TMP DP  RH WIND       PRES   REMARKS
LEWISTON       MOSUNNY   72  42  34 CALM      29.87F
LOWELL           N/A     63  46  54 N5        29.96F
COEUR D`ALENE  MOSUNNY   68  43  40 NE10      29.92S
MULLAN PASS    MOSUNNY   67  34  29 MISG      30.10S
$$


USA.gov is the U.S. government's official web portal to all federal, state and local government web resources and services.